Window Rock, AZ

1:32 PM MDT on June 25, 2017 (GMT -0600)
Window Rock

Weather History for KRQE - March, 2013

Change the Weather History Date:

Sunday, March 3, 2013

  Actual Average Record
Temperature  
Mean Temperature 35 °F -  
Max Temperature 53 °F 48 °F 69 °F (2016)
Min Temperature 17 °F 23 °F -6 °F (2002)
Degree Days  
Heating Degree Days 30    
Moisture  
Dew Point 15 °F    
Average Humidity 42    
Maximum Humidity 74    
Minimum Humidity 19    
Precipitation  
Precipitation 0.00 in - - ()
Sea Level Pressure  
Sea Level Pressure 29.98 in    
Wind  
Wind Speed 6 mph (WSW)    
Max Wind Speed 20 mph    
Max Gust Speed 28 mph    
Visibility 10 miles    
Events      
Averages and records for this station are not official NWS values.
T = Trace of Precipitation, MM = Missing Value Source: NWS Daily Summary

Daily Weather History Graph

Daily Weather History Graph

Search for Another Location

Airport or City:

Trip Planner

Search our weather history database for the weather conditions in past years. The results will help you decide how hot, cold, wet, or windy it might be!

Date:

Astronomy

Mar. 03, 2013 Rise Set
Actual Time 6:43 AM MST 6:13 PM MST
Civil Twilight 6:17 AM MST 6:39 PM MST
Nautical Twilight 5:48 AM MST 7:08 PM MST
Astronomical Twilight 5:18 AM MST 7:38 PM MST
Moon No Moon Rise 10:14 AM MST (3/3)
Length of Visible Light 12h 21m
Length of Day
11h 30m
Waning Gibbous, 63% of the Moon is Illuminated
Mar 3
Waning Gibbous
Mar 4
Last Quarter
Mar 11
New
Mar 19
First Quarter
Mar 27
Full

Hourly Weather History & Observations

Time (MST) Temp. Windchill Dew Point Humidity Pressure Visibility Wind Dir Wind Speed Gust Speed Precip Events Conditions
12:53 AM 24.1 °F - 12.0 °F 60% 30.14 in 10.0 mi Calm Calm - N/A   Clear
1:53 AM 23.0 °F - 10.9 °F 60% 30.12 in 10.0 mi North - - N/A   Clear
2:53 AM 21.9 °F - 12.0 °F 66% 30.08 in 10.0 mi Calm Calm - N/A   Clear
3:53 AM 19.9 °F - 10.0 °F 65% 30.08 in 10.0 mi Calm Calm - N/A   Clear
4:53 AM 17.1 °F - 10.0 °F 74% 30.08 in 10.0 mi Calm Calm - N/A   Clear
5:53 AM 21.0 °F - 12.0 °F 68% 30.08 in 10.0 mi Calm Calm - N/A   Clear
6:53 AM 19.9 °F - 12.0 °F 71% 30.09 in 10.0 mi Calm Calm - N/A   Clear
7:53 AM 27.0 °F - 16.0 °F 63% 30.13 in 10.0 mi Calm Calm - N/A   Clear
8:53 AM 39.9 °F - 19.9 °F 45% 30.08 in 10.0 mi Calm Calm - N/A   Clear
9:53 AM 52.0 °F - 14.0 °F 22% 30.01 in 10.0 mi West 15.0 mph - N/A   Clear
10:53 AM 52.0 °F - 14.0 °F 22% 30.01 in 10.0 mi WSW 16.1 mph 25.3 mph N/A   Clear
11:53 AM 52.0 °F - 12.0 °F 20% 30.01 in 10.0 mi West 8.1 mph - N/A   Mostly Cloudy
12:53 PM 50.0 °F - 14.0 °F 24% 29.99 in 10.0 mi WSW 11.5 mph 17.3 mph N/A   Scattered Clouds
1:53 PM 53.1 °F - 12.9 °F 20% 29.96 in 10.0 mi West 10.4 mph - N/A   Mostly Cloudy
2:53 PM 53.1 °F - 10.9 °F 19% 29.93 in 10.0 mi West 17.3 mph 26.5 mph N/A   Scattered Clouds
3:53 PM 52.0 °F - 12.9 °F 21% 29.93 in 10.0 mi WSW 19.6 mph 26.5 mph N/A   Overcast
4:53 PM 52.0 °F - 15.1 °F 23% 29.92 in 10.0 mi WSW 15.0 mph 23.0 mph N/A   Mostly Cloudy
5:53 PM 50.0 °F - 19.0 °F 29% 29.90 in 10.0 mi WSW 12.7 mph - N/A   Overcast
6:53 PM 50.0 °F - 23.0 °F 35% 29.92 in 10.0 mi WSW 16.1 mph 25.3 mph N/A   Overcast
7:53 PM 46.0 °F 40.6 °F 28.0 °F 50% 29.90 in 10.0 mi WSW 11.5 mph - 0.00 in   Mostly Cloudy
8:53 PM 46.0 °F 39.3 °F 23.0 °F 40% 29.84 in 10.0 mi WSW 16.1 mph 24.2 mph N/A   Mostly Cloudy
9:53 PM 45.0 °F 37.9 °F 19.9 °F 37% 29.79 in 10.0 mi SW 16.1 mph 27.6 mph N/A   Scattered Clouds
10:53 PM 41.0 °F 37.1 °F 18.0 °F 40% 29.81 in 10.0 mi WSW 5.8 mph - N/A   Partly Cloudy
11:53 PM 39.0 °F 34.0 °F 18.0 °F 43% 29.81 in 10.0 mi SW 6.9 mph - N/A   Clear